Weather History for KUIN - February, 2012

Change the Weather History Date:

Sunday, February 5, 2012

  Actual Average Record
Temperature  
Mean Temperature 37 °F 28 °F  
Max Temperature 44 °F 36 °F 64 °F (1946)
Min Temperature 30 °F 20 °F -16 °F (1936)
Degree Days  
Heating Degree Days 28 37  
Month to date heating degree days 186  
Since 1 July heating degree days 3572  
Cooling Degree Days 0 0  
Month to date cooling degree days 0  
Year to date cooling degree days 0  
Moisture  
Dew Point 31 °F    
Average Humidity 84    
Maximum Humidity 93    
Minimum Humidity 63    
Precipitation  
Precipitation 0.00 in 0.06 in 1.02 in (1942)
Month to date precipitation 0.26  
Year to date precipitation 1.78  
Sea Level Pressure  
Sea Level Pressure 30.28 in    
Wind  
Wind Speed 9 mph (North)    
Max Wind Speed 13 mph    
Max Gust Speed -    
Visibility 7 miles    
Events Rain    
T = Trace of Precipitation, MM = Missing Value Source: NWS Daily Summary

Daily Weather History Graph

Daily Weather History Graph

Search for Another Location

Airport or City:

Trip Planner

Search our weather history database for the weather conditions in past years. The results will help you decide how hot, cold, wet, or windy it might be!

Date:

Astronomy

Feb. 05, 2012 Rise Set
Actual Time 7:09 AM CST 5:28 PM CST
Civil Twilight 6:41 AM CST 5:56 PM CST
Nautical Twilight 6:09 AM CST 6:28 PM CST
Astronomical Twilight 5:37 AM CST 7:00 PM CST
Moon 3:27 PM CST (2/5) 5:20 AM CST (2/5)
Length of Visible Light 11h 15m
Length of Day
10h 18m
Waxing Gibbous, 95% of the Moon is Illuminated
Feb 5
Waxing Gibbous
Feb 7
Full
Feb 14
Last Quarter
Feb 21
New
Feb 29
First Quarter

Hourly Weather History & Observations

Time (CST) Temp. Windchill Dew Point Humidity Pressure Visibility Wind Dir Wind Speed Gust Speed Precip Events Conditions
12:14 AM 37.4 °F 29.8 °F 35.6 °F 93% 30.18 in 3.0 mi NNE 11.5 mph - 0.00 in Rain Light Rain
12:30 AM 37.4 °F 30.3 °F 35.6 °F 93% 30.18 in 4.0 mi NNE 10.4 mph - 0.00 in   Overcast
12:54 AM 37.0 °F 29.8 °F 35.1 °F 93% 30.20 in 4.0 mi NNE 10.4 mph - 0.00 in   Overcast
1:02 AM 37.4 °F 31.4 °F 35.6 °F 93% 30.19 in 4.0 mi NNE 8.1 mph - N/A   Overcast
1:50 AM 37.4 °F 30.8 °F 33.8 °F 87% 30.19 in 5.0 mi NNE 9.2 mph - N/A   Overcast
1:54 AM 37.0 °F 31.0 °F 34.0 °F 89% 30.21 in 6.0 mi NNE 8.1 mph - N/A   Overcast
2:12 AM 37.4 °F 30.8 °F 33.8 °F 87% 30.19 in 6.0 mi North 9.2 mph - N/A   Overcast
2:54 AM 37.0 °F 29.3 °F 34.0 °F 89% 30.22 in 6.0 mi North 11.5 mph - N/A   Overcast
3:17 AM 37.4 °F 31.4 °F 33.8 °F 87% 30.22 in 6.0 mi North 8.1 mph - N/A   Overcast
3:54 AM 36.0 °F 28.5 °F 33.1 °F 89% 30.24 in 7.0 mi North 10.4 mph - N/A   Overcast
4:23 AM 35.6 °F 28.6 °F 33.8 °F 93% 30.23 in 8.0 mi North 9.2 mph - N/A   Overcast
4:54 AM 36.0 °F 29.6 °F 32.0 °F 86% 30.25 in 8.0 mi North 8.1 mph - N/A   Overcast
5:54 AM 35.1 °F 29.3 °F 30.0 °F 82% 30.27 in 10.0 mi North 6.9 mph - N/A   Overcast
6:54 AM 34.0 °F 26.6 °F 30.0 °F 85% 30.29 in 10.0 mi North 9.2 mph - N/A   Overcast
7:54 AM 34.0 °F 27.2 °F 28.9 °F 82% 30.31 in 8.0 mi North 8.1 mph - N/A   Overcast
8:54 AM 35.1 °F 29.3 °F 28.9 °F 78% 30.32 in 10.0 mi NNW 6.9 mph - N/A   Clear
9:54 AM 37.9 °F 32.1 °F 30.0 °F 73% 30.32 in 10.0 mi North 8.1 mph - N/A   Clear
10:54 AM 39.9 °F 34.5 °F 30.9 °F 70% 30.33 in 10.0 mi North 8.1 mph - N/A   Clear
11:54 AM 42.1 °F 38.4 °F 33.1 °F 70% 30.33 in 10.0 mi North 5.8 mph - N/A   Clear
12:54 PM 43.0 °F 38.2 °F 32.0 °F 65% 30.32 in 10.0 mi NNW 8.1 mph - N/A   Clear
1:54 PM 44.1 °F 39.5 °F 32.0 °F 63% 30.31 in 10.0 mi NNW 8.1 mph - N/A   Clear
2:54 PM 44.1 °F 39.5 °F 33.1 °F 65% 30.32 in 10.0 mi NNW 8.1 mph - N/A   Scattered Clouds
3:41 PM 42.8 °F 36.2 °F 33.8 °F 70% 30.30 in 8.0 mi NW 12.7 mph - N/A   Mostly Cloudy
3:54 PM 39.9 °F 33.4 °F 33.1 °F 77% 30.33 in 7.0 mi NW 10.4 mph - N/A   Scattered Clouds
4:54 PM 37.0 °F 28.9 °F 30.9 °F 79% 30.34 in 6.0 mi NW 12.7 mph - N/A   Haze
5:54 PM 32.0 °F 24.8 °F 28.9 °F 88% 30.35 in 6.0 mi NW 8.1 mph - N/A   Clear
6:47 PM 30.2 °F 24.3 °F 28.4 °F 93% 30.33 in 6.0 mi NNW 5.8 mph - N/A   Scattered Clouds
6:54 PM 30.9 °F 24.3 °F 28.0 °F 89% 30.35 in 6.0 mi NNW 6.9 mph - N/A   Mostly Cloudy
7:54 PM 30.9 °F 22.8 °F 28.0 °F 89% 30.34 in 7.0 mi NNW 9.2 mph - N/A   Overcast
8:54 PM 30.9 °F 23.5 °F 28.0 °F 89% 30.34 in 6.0 mi NNW 8.1 mph - N/A   Overcast
9:54 PM 30.0 °F 23.2 °F 28.0 °F 92% 30.32 in 5.0 mi NNW 6.9 mph - N/A   Overcast
10:54 PM 30.0 °F 24.1 °F 28.0 °F 92% 30.32 in 4.0 mi NW 5.8 mph - N/A   Overcast
11:14 PM 30.2 °F 26.7 °F 28.4 °F 93% 30.29 in 4.0 mi NW 3.5 mph - N/A   Overcast
11:54 PM 30.0 °F 26.5 °F 27.0 °F 88% 30.31 in 3.0 mi West 3.5 mph - N/A   Overcast